DateTimeUTC,F1_A11,F1_S11,BsB_S11,BsG_S11,BsR_S11,BbsB_S11,BbsG_S11,BbsR_S11,BaB_A11,BaG_A11,BaR_A11,Tu_S11,T_S11,Uu_S11,U_S11,P_S11,T1_A11
2021-06-10T05:00:00Z,00000200,20000000,,,,,,,-000.54,-000.24,0000.26,17.4,24.3,06.1,04.0,0663.1,31.0
2021-06-10T05:01:00Z,00000200,20000000,,,,,,,0000.06,0000.28,-000.40,17.4,24.3,06.0,03.9,0663.1,31.0
2021-06-10T05:02:00Z,00000200,20000000,,,,,,,-000.34,0000.12,0000.30,17.4,24.3,06.0,03.9,0663.1,31.0
2021-06-10T05:03:00Z,00000200,60000000,,,,,,,0000.93,0000.26,-000.11,17.4,24.3,06.0,03.9,0663.1,31.0
2021-06-10T05:04:00Z,00000200,40000000,0000.85,0000.64,0000.41,0000.16,0000.22,0000.32,-000.18,-000.23,0000.23,17.5,24.1,06.0,04.0,0664.0,31.0
2021-06-10T05:05:00Z,00000200,00000000,0000.92,0000.37,0000.50,-000.07,0000.05,0000.13,0000.51,0000.33,0000.29,17.6,24.1,06.0,04.0,0664.0,31.0
2021-06-10T05:06:00Z,00000200,00000000,0000.86,0000.68,0000.43,-000.25,0000.12,0000.15,-000.27,0000.16,0000.09,17.6,24.1,05.9,04.0,0664.0,31.0
2021-06-10T05:07:00Z,00000200,00000000,0001.37,0000.57,0000.83,0000.39,0000.25,0000.16,0000.46,0000.23,-000.17,17.6,24.1,06.0,04.0,0664.0,31.0
2021-06-10T05:08:00Z,00000200,00000000,0000.87,0000.68,0000.44,0000.62,0000.03,0000.34,0000.71,0000.25,0000.82,17.6,24.0,06.0,04.0,0664.0,31.0
2021-06-10T05:09:00Z,00000200,00000000,0001.13,0000.61,0000.24,0000.24,0000.05,0000.19,0000.25,0000.47,-000.14,17.6,24.1,06.2,04.2,0664.0,31.0
2021-06-10T05:10:00Z,00000200,00000000,0001.30,0000.49,0000.29,0000.30,0000.37,-000.09,0000.01,0000.25,0000.19,17.6,24.0,06.1,04.1,0664.0,31.0
2021-06-10T05:11:00Z,00000200,00000000,0000.15,0000.44,0000.29,-000.13,0000.40,0000.01,0000.22,-000.03,-000.09,17.6,24.0,06.2,04.1,0664.0,31.0
2021-06-10T05:12:00Z,00000200,00000000,0001.60,0000.60,0000.35,0000.78,0000.04,0000.10,0000.12,-000.03,0000.52,17.6,24.0,06.0,04.0,0664.0,31.0
2021-06-10T05:13:00Z,00000200,00000000,0001.47,0000.69,0000.36,-000.03,0000.06,-000.07,0000.18,0000.39,0000.11,17.5,24.0,06.0,04.0,0664.0,31.0
2021-06-10T05:14:00Z,00000200,00000000,0001.36,0000.52,0000.33,0000.01,0000.36,-000.22,0000.37,0000.37,0000.08,17.5,24.0,05.9,04.0,0664.0,31.0
2021-06-10T05:15:00Z,00000200,00000000,0001.06,0000.62,0000.41,0000.57,0000.09,-000.14,0000.63,0000.39,0000.36,17.6,24.0,05.9,04.0,0664.0,31.0
2021-06-10T05:16:00Z,00000200,00000000,0000.85,0000.63,0000.68,0000.41,0000.19,0000.08,0000.41,0000.76,0000.45,17.5,24.0,06.0,04.0,0664.0,31.0
2021-06-10T05:17:00Z,00000200,00000000,0000.88,0000.31,0000.03,0000.08,0000.40,0000.14,-000.04,-000.32,0000.05,17.5,24.0,06.1,04.1,0664.0,31.0
2021-06-10T05:18:00Z,00000200,00000000,0000.88,0000.58,0000.31,0000.34,0000.38,0000.15,0000.21,0000.47,-000.01,17.5,24.0,06.1,04.1,0664.0,31.0
2021-06-10T05:19:00Z,00000200,00000000,0001.04,0000.68,0000.85,0000.32,0000.09,0000.39,0000.22,-000.29,0000.10,17.5,24.0,06.0,04.1,0664.1,31.0
2021-06-10T05:20:00Z,00000200,00000000,0001.20,0000.50,0000.31,0000.01,-000.08,0000.12,0000.33,0000.55,0000.37,17.5,23.9,05.9,03.9,0664.1,31.0
2021-06-10T05:21:00Z,00000200,00000000,0001.59,0000.68,0000.03,0000.40,0000.09,-000.08,0000.17,0000.08,0000.22,17.5,24.0,05.7,03.9,0664.0,31.0
2021-06-10T05:22:00Z,00000200,00000000,0000.89,0000.43,0000.33,0000.32,0000.03,0000.19,0000.59,0000.10,0000.18,17.5,24.0,05.9,04.0,0664.0,31.0
2021-06-10T05:23:00Z,00000200,00000000,0001.05,0000.48,0000.31,0000.28,-000.02,-000.16,0000.04,0000.41,0000.05,17.5,24.0,06.0,04.0,0664.0,31.0
2021-06-10T05:24:00Z,00000200,00000000,0001.53,0000.42,0000.28,0000.09,0000.11,-000.02,-000.21,-000.01,0000.19,17.5,23.9,05.9,04.0,0664.0,31.0
2021-06-10T05:25:00Z,00000200,00000000,0000.41,0000.80,0000.35,0000.03,0000.24,-000.14,0000.14,0000.35,-000.15,17.5,23.9,05.7,03.8,0664.0,31.0
2021-06-10T05:26:00Z,00000200,00000000,0001.70,0000.40,0000.30,-000.17,0000.01,0000.28,0000.35,-000.08,-000.23,17.5,24.0,05.7,03.8,0664.0,30.9
2021-06-10T05:27:00Z,00000200,00000000,0002.08,0000.56,0000.11,0000.52,0000.23,-000.15,0000.47,0000.22,0000.73,17.5,24.0,05.6,03.7,0664.0,31.0
2021-06-10T05:28:00Z,00000200,00000000,0001.17,0000.46,0000.16,0000.01,-000.15,0000.12,0000.05,0000.30,-000.03,17.5,23.9,05.6,03.8,0664.0,31.0
2021-06-10T05:29:00Z,00000200,00000000,0001.44,0000.50,0000.05,-000.02,0000.17,-000.04,0000.28,0000.40,0000.24,17.5,23.9,05.6,03.8,0664.0,31.0
2021-06-10T05:30:00Z,00000200,00000000,0000.47,0000.50,0000.28,-000.03,0000.18,-000.24,0000.17,-000.05,0000.30,17.5,23.9,05.5,03.7,0664.0,31.0
2021-06-10T05:31:00Z,00000200,00000000,0001.08,0000.58,0000.53,0000.02,0000.14,0000.14,0000.20,0000.02,-000.11,17.5,23.9,05.5,03.7,0664.0,31.0
2021-06-10T05:32:00Z,00000200,00000000,0000.88,0000.55,0000.29,0000.35,-000.05,-000.16,0000.05,0000.64,0000.53,17.5,23.9,05.5,03.7,0664.0,31.0
2021-06-10T05:33:00Z,00000200,00000000,0001.64,0000.38,0000.04,0000.02,-000.09,-000.26,0000.43,-000.11,-000.26,17.5,23.9,05.5,03.7,0664.0,31.0
2021-06-10T05:34:00Z,00000200,00000000,0001.02,0000.69,0000.39,0000.86,0000.38,-000.20,0000.10,0000.01,0000.35,17.5,23.9,05.4,03.6,0664.0,31.0
2021-06-10T05:35:00Z,00000200,00000000,0001.08,0000.35,0000.16,0000.25,0000.26,0000.11,0000.22,0000.06,0000.21,17.5,23.9,05.3,03.6,0664.0,31.0
2021-06-10T05:36:00Z,00000200,00000000,0000.97,0000.34,0000.60,-000.11,0000.30,0000.34,0000.43,0001.01,0000.43,17.5,23.9,05.5,03.7,0664.1,31.0
2021-06-10T05:37:00Z,00000200,00000000,0001.17,0000.53,0000.48,-000.09,0000.16,-000.18,0000.44,0000.43,0000.28,17.5,23.9,05.5,03.7,0664.0,31.0
2021-06-10T05:38:00Z,00000200,00000000,0000.77,0000.43,0000.38,0000.09,0000.18,0000.03,0000.23,-000.25,-000.33,17.5,23.9,05.4,03.6,0664.1,31.0
2021-06-10T05:39:00Z,00000200,00000000,0000.88,0000.58,0000.24,0000.43,0000.17,0000.10,-000.15,-000.30,0000.13,17.5,23.9,05.2,03.5,0664.1,31.0
2021-06-10T05:40:00Z,00000200,00000000,0000.69,0000.51,0000.21,0000.34,0000.09,-000.07,0000.42,0000.73,0000.42,17.5,23.9,05.3,03.6,0664.1,30.9
2021-06-10T05:41:00Z,00000200,00000000,0001.43,0000.61,0000.35,0000.02,0000.15,0000.16,-000.04,0000.10,0000.02,17.5,23.9,05.2,03.5,0664.1,31.0
2021-06-10T05:42:00Z,00000200,00000000,0001.21,0000.63,0000.21,0000.06,0000.13,-000.12,0000.30,0000.16,0000.46,17.5,23.9,05.2,03.5,0664.1,31.0
2021-06-10T05:43:00Z,00000200,00000000,0000.95,0000.51,0000.46,0000.18,0000.07,0000.11,0001.15,0000.73,0000.28,17.5,23.9,05.3,03.6,0664.1,31.0
2021-06-10T05:44:00Z,00000200,00000000,0001.76,0000.23,0000.64,0000.48,-000.24,0000.54,0000.10,0000.09,0000.02,17.5,23.9,05.6,03.7,0664.1,31.0
2021-06-10T05:45:00Z,00000200,00000000,0000.57,0000.51,0000.61,0000.08,0000.26,0000.03,0000.29,0000.65,0000.32,17.5,23.9,05.5,03.7,0664.0,31.0
2021-06-10T05:46:00Z,00000200,00000000,0001.20,0000.69,0000.28,0000.27,0000.39,-000.02,-000.01,0000.20,-000.13,17.5,23.9,05.4,03.6,0664.0,31.0
2021-06-10T05:47:00Z,00000200,00000000,0001.39,0000.73,0000.36,0000.21,-000.17,-000.04,0000.70,0000.03,0000.73,17.5,23.9,05.5,03.7,0664.0,31.0
2021-06-10T05:48:00Z,00000200,00000000,0000.62,0000.40,0000.28,0000.29,-000.04,-000.12,0000.12,0000.26,0000.10,17.5,23.9,05.5,03.7,0664.1,31.0
2021-06-10T05:49:00Z,00000200,00000000,0001.44,0000.56,0000.05,0000.25,0000.09,0000.09,-000.09,0000.18,0000.19,17.5,23.9,05.4,03.6,0664.1,31.0
2021-06-10T05:50:00Z,00000200,00000000,0000.68,0000.51,0000.43,0000.38,-000.10,0000.31,0000.65,0000.34,0000.27,17.5,23.9,05.3,03.6,0664.1,31.0
2021-06-10T05:51:00Z,00000200,00000000,0001.37,0000.64,0000.28,0000.28,0000.27,-000.15,0000.11,0000.59,0000.09,17.5,23.9,05.4,03.6,0664.1,31.0
2021-06-10T05:52:00Z,00000200,00000000,0001.87,0000.17,0000.36,-000.07,0000.23,-000.01,0000.52,-000.10,0000.32,17.5,23.9,05.4,03.7,0664.1,31.0
2021-06-10T05:53:00Z,00000200,00000000,0000.52,0000.58,0000.40,0000.04,0000.39,0000.13,0000.16,0000.42,0000.05,17.5,23.9,05.4,03.6,0664.1,31.0
2021-06-10T05:54:00Z,00000200,00000000,0000.84,0000.38,0000.50,0000.52,0000.28,0000.38,0000.69,0000.36,0000.29,17.4,23.9,05.3,03.6,0664.1,30.9
2021-06-10T05:55:00Z,00000200,00000000,0000.98,0000.66,0000.13,0000.35,0000.06,-000.30,0000.38,0000.65,0000.38,17.4,23.9,05.5,03.7,0664.1,30.9
2021-06-10T05:56:00Z,00000200,00000000,0001.70,0000.64,0000.52,0000.15,0000.11,0000.01,0000.05,0000.01,0000.10,17.4,23.9,05.6,03.8,0664.1,30.9
2021-06-10T05:57:00Z,00000200,40000000,,,,,,,0000.21,-000.03,0000.21,17.5,23.9,06.1,04.1,0664.0,31.0
2021-06-10T05:58:00Z,00000200,60000000,,,,,,,-000.36,-000.07,-000.26,17.2,24.0,05.5,03.6,0663.1,31.0
2021-06-10T05:59:00Z,00000200,20000000,,,,,,,-000.11,-000.50,0000.01,17.2,24.1,05.4,03.5,0663.1,31.0
